Location: G�migny
(47.9646°N, 1.6950°E)
Time: 05:45:50
(UTC+00:00)

SL-27 R/B - Pass Details

Date: 23 October 2019
Orbit: 421 x 472 km, 74.7° (Epoch: 18 November)

Event Time Altitude Azimuth Distance (km) Brightness Sun altitude
Rises 18:41:19 0° 344° (NNW) 2,388 6.3 -19.2°
Reaches altitude 10° 18:43:28 10° 352° (N) 1,519 5.2 -19.5°
Enters shadow 18:45:05 24° 9° (N) 932 3.9 -19.8°
